Location: Willow Grove Park
(46.1754°N, 123.0885°W)
Time: 12:49:25
(UTC-07:00)

Tiangong 2 - Visible Passes

Search period start: 21 March 2019 00:00
Search period end: 31 March 2019 00:00
Orbit: 379 x 390 km, 42.8° (Epoch: 21 March)

Date Brightness Start Highest point End Pass type
(mag) Time Alt. Az. Time Alt. Az. Time Alt. Az.
21 Mar 4.0 04:48:23 12° ESE 04:48:23 12° ESE 04:48:43 10° ESE visible
21 Mar 2.9 06:20:37 13° WSW 06:22:01 17° SSW 06:24:12 10° SSE visible
22 Mar 3.2 05:24:08 18° SSE 05:24:08 18° SSE 05:25:22 10° SE visible
23 Mar 3.5 06:00:02 11° SSW 06:00:02 11° SSW 06:00:33 10° SSW visible
30 Mar 3.3 20:27:24 10° SSE 20:28:15 11° SSE 20:28:51 10° SE visible
